contact:dominique.lefevre@mio.osupytheas.fr, maurice.libes@osupytheas.fr, didier.mallarino@osupytheas.fr
Project:EMSO http://www.emso-fr.org/EMSO-France
Depth: 2436.0 m
Title:EMSO Ligure Ouest : Data MII capteur MICROCAT
DateTime_Computer,Latitude,Longitude,Temperature,Conductivity,Pressure,DateTime_Instrument
DateTime_Computer,Latitude,Longitude,degC,S m-1,dbar,DateTime_Instrument
2023-01-21T00:01:35Z,42.805,6.029,13.3026,4.60092,2470.427,2023-1-21T02:07:56Z
2023-01-21T00:04:38Z,42.805,6.029,13.3022,4.60098,2470.39,2023-1-21T02:11:00Z
2023-01-21T00:07:41Z,42.805,6.029,13.3031,4.60090,2470.413,2023-1-21T02:14:03Z
2023-01-21T00:10:44Z,42.805,6.029,13.3024,4.60102,2470.39,2023-1-21T02:17:06Z
2023-01-21T00:13:47Z,42.805,6.029,13.3029,4.60088,2470.404,2023-1-21T02:20:09Z
2023-01-21T00:16:50Z,42.805,6.029,13.3027,4.60094,2470.39,2023-1-21T02:23:12Z
2023-01-21T00:19:53Z,42.805,6.029,13.3026,4.60088,2470.366,2023-1-21T02:26:15Z
2023-01-21T00:22:56Z,42.805,6.029,13.3023,4.60087,2470.39,2023-1-21T02:29:18Z
2023-01-21T00:25:59Z,42.805,6.029,13.3024,4.60095,2470.404,2023-1-21T02:32:21Z
2023-01-21T00:29:02Z,42.805,6.029,13.3028,4.60097,2470.404,2023-1-21T02:35:24Z
2023-01-21T00:32:05Z,42.805,6.029,13.3033,4.60091,2470.353,2023-1-21T02:38:27Z
2023-01-21T00:35:08Z,42.805,6.029,13.3021,4.60079,2470.413,2023-1-21T02:41:30Z
2023-01-21T00:38:12Z,42.805,6.029,13.3024,4.60092,2470.366,2023-1-21T02:44:34Z
2023-01-21T00:41:15Z,42.805,6.029,13.3025,4.60087,2470.427,2023-1-21T02:47:37Z
2023-01-21T00:44:18Z,42.805,6.029,13.3025,4.60099,2470.404,2023-1-21T02:50:40Z
2023-01-21T00:47:21Z,42.805,6.029,13.3024,4.60087,2470.404,2023-1-21T02:53:43Z
2023-01-21T00:50:24Z,42.805,6.029,13.3029,4.60088,2470.427,2023-1-21T02:56:46Z
2023-01-21T00:53:27Z,42.805,6.029,13.3024,4.60080,2470.404,2023-1-21T02:59:49Z
2023-01-21T00:56:30Z,42.805,6.029,13.3020,4.60099,2470.39,2023-1-21T03:02:52Z
2023-01-21T00:59:33Z,42.805,6.029,13.3027,4.60082,2470.404,2023-1-21T03:05:55Z
2023-01-21T01:02:36Z,42.805,6.029,13.3021,4.60085,2470.366,2023-1-21T03:08:58Z
2023-01-21T01:05:39Z,42.805,6.029,13.3024,4.60092,2470.404,2023-1-21T03:12:01Z
2023-01-21T01:08:42Z,42.805,6.029,13.3033,4.60094,2470.39,2023-1-21T03:15:04Z
2023-01-21T01:11:46Z,42.805,6.029,13.3025,4.60100,2470.39,2023-1-21T03:18:08Z
2023-01-21T01:14:49Z,42.805,6.029,13.3024,4.60099,2470.404,2023-1-21T03:21:11Z
2023-01-21T01:17:52Z,42.805,6.029,13.3026,4.60085,2470.404,2023-1-21T03:24:14Z
2023-01-21T01:20:55Z,42.805,6.029,13.3024,4.60083,2470.366,2023-1-21T03:27:17Z
2023-01-21T01:23:58Z,42.805,6.029,13.3021,4.60084,2470.427,2023-1-21T03:30:20Z
2023-01-21T01:27:01Z,42.805,6.029,13.3023,4.60081,2470.366,2023-1-21T03:33:23Z
2023-01-21T01:30:04Z,42.805,6.029,13.3021,4.60087,2470.427,2023-1-21T03:36:26Z
2023-01-21T01:33:07Z,42.805,6.029,13.3024,4.60084,2470.39,2023-1-21T03:39:29Z
2023-01-21T01:36:10Z,42.805,6.029,13.3028,4.60092,2470.427,2023-1-21T03:42:32Z
2023-01-21T01:39:13Z,42.805,6.029,13.3023,4.60091,2470.404,2023-1-21T03:45:35Z
2023-01-21T01:42:16Z,42.805,6.029,13.3029,4.60093,2470.343,2023-1-21T03:48:38Z
2023-01-21T01:45:19Z,42.805,6.029,13.3031,4.60092,2470.39,2023-1-21T03:51:41Z
2023-01-21T01:48:23Z,42.805,6.029,13.3024,4.60094,2470.413,2023-1-21T03:54:45Z
2023-01-21T01:51:26Z,42.805,6.029,13.3021,4.60084,2470.413,2023-1-21T03:57:48Z
2023-01-21T01:54:29Z,42.805,6.029,13.3023,4.60086,2470.413,2023-1-21T04:00:51Z
2023-01-21T01:57:32Z,42.805,6.029,13.3026,4.60081,2470.413,2023-1-21T04:03:54Z
2023-01-21T02:00:35Z,42.805,6.029,13.3026,4.60084,2470.39,2023-1-21T04:06:57Z
2023-01-21T02:03:38Z,42.805,6.029,13.3021,4.60099,2470.404,2023-1-21T04:10:00Z
2023-01-21T02:06:41Z,42.805,6.029,13.3024,4.60097,2470.427,2023-1-21T04:13:03Z
2023-01-21T02:09:44Z,42.805,6.029,13.3019,4.60087,2470.427,2023-1-21T04:16:06Z
2023-01-21T02:12:47Z,42.805,6.029,13.3025,4.60085,2470.427,2023-1-21T04:19:09Z
2023-01-21T02:15:50Z,42.805,6.029,13.3031,4.60102,2470.413,2023-1-21T04:22:12Z
2023-01-21T02:18:53Z,42.805,6.029,13.3028,4.60099,2470.427,2023-1-21T04:25:15Z
2023-01-21T02:21:57Z,42.805,6.029,13.3028,4.60104,2470.39,2023-1-21T04:28:19Z
2023-01-21T02:25:00Z,42.805,6.029,13.3024,4.60098,2470.413,2023-1-21T04:31:22Z
2023-01-21T02:28:03Z,42.805,6.029,13.3029,4.60109,2470.413,2023-1-21T04:34:25Z
2023-01-21T02:31:06Z,42.805,6.029,13.3022,4.60099,2470.413,2023-1-21T04:37:28Z
2023-01-21T02:34:09Z,42.805,6.029,13.3024,4.60087,2470.437,2023-1-21T04:40:31Z
2023-01-21T02:37:12Z,42.805,6.029,13.3025,4.60089,2470.437,2023-1-21T04:43:34Z
2023-01-21T02:40:15Z,42.805,6.029,13.3025,4.60100,2470.437,2023-1-21T04:46:37Z
2023-01-21T02:43:18Z,42.805,6.029,13.3026,4.60094,2470.413,2023-1-21T04:49:40Z
2023-01-21T02:46:21Z,42.805,6.029,13.3025,4.60093,2470.413,2023-1-21T04:52:43Z
2023-01-21T02:49:24Z,42.805,6.029,13.3023,4.60107,2470.437,2023-1-21T04:55:46Z
2023-01-21T02:52:27Z,42.805,6.029,13.3029,4.60092,2470.427,2023-1-21T04:58:49Z
2023-01-21T02:55:30Z,42.805,6.029,13.3021,4.60101,2470.46,2023-1-21T05:01:53Z
2023-01-21T02:58:34Z,42.805,6.029,13.3026,4.60092,2470.45,2023-1-21T05:04:56Z
2023-01-21T03:01:37Z,42.805,6.029,13.3023,4.60089,2470.474,2023-1-21T05:07:59Z
2023-01-21T03:04:40Z,42.805,6.029,13.3022,4.60087,2470.497,2023-1-21T05:11:02Z
2023-01-21T03:07:43Z,42.805,6.029,13.3020,4.60092,2470.46,2023-1-21T05:14:05Z
2023-01-21T03:10:46Z,42.805,6.029,13.3028,4.60092,2470.474,2023-1-21T05:17:08Z
2023-01-21T03:13:49Z,42.805,6.029,13.3033,4.60099,2470.52,2023-1-21T05:20:11Z
2023-01-21T03:16:52Z,42.805,6.029,13.3024,4.60090,2470.427,2023-1-21T05:23:14Z
2023-01-21T03:19:55Z,42.805,6.029,13.3017,4.60092,2470.46,2023-1-21T05:26:17Z
2023-01-21T03:22:58Z,42.805,6.029,13.3023,4.60087,2470.483,2023-1-21T05:29:20Z
2023-01-21T03:26:01Z,42.805,6.029,13.3025,4.60110,2470.483,2023-1-21T05:32:23Z
2023-01-21T03:29:04Z,42.805,6.029,13.3022,4.60097,2470.483,2023-1-21T05:35:26Z
2023-01-21T03:32:08Z,42.805,6.029,13.3021,4.60099,2470.497,2023-1-21T05:38:30Z
2023-01-21T03:35:11Z,42.805,6.029,13.3029,4.60095,2470.52,2023-1-21T05:41:33Z
2023-01-21T03:38:14Z,42.805,6.029,13.3026,4.60107,2470.483,2023-1-21T05:44:36Z
2023-01-21T03:41:17Z,42.805,6.029,13.3026,4.60096,2470.483,2023-1-21T05:47:39Z
2023-01-21T03:44:20Z,42.805,6.029,13.3021,4.60107,2470.497,2023-1-21T05:50:42Z
2023-01-21T03:47:23Z,42.805,6.029,13.3025,4.60104,2470.497,2023-1-21T05:53:45Z
2023-01-21T03:50:26Z,42.805,6.029,13.3041,4.60097,2470.52,2023-1-21T05:56:48Z
2023-01-21T03:53:29Z,42.805,6.029,13.3026,4.60098,2470.507,2023-1-21T05:59:51Z
2023-01-21T03:56:32Z,42.805,6.029,13.3027,4.60096,2470.53,2023-1-21T06:02:54Z
2023-01-21T03:59:35Z,42.805,6.029,13.3027,4.60100,2470.52,2023-1-21T06:05:57Z
2023-01-21T04:02:38Z,42.805,6.029,13.3026,4.60121,2470.52,2023-1-21T06:09:00Z
2023-01-21T04:05:41Z,42.805,6.029,13.3029,4.60110,2470.553,2023-1-21T06:12:04Z
2023-01-21T04:08:45Z,42.805,6.029,13.3026,4.60099,2470.544,2023-1-21T06:15:07Z
2023-01-21T04:11:48Z,42.805,6.029,13.3024,4.60092,2470.53,2023-1-21T06:18:10Z
2023-01-21T04:14:51Z,42.805,6.029,13.3030,4.60107,2470.567,2023-1-21T06:21:13Z
2023-01-21T04:17:54Z,42.805,6.029,13.3034,4.60101,2470.553,2023-1-21T06:24:16Z
2023-01-21T04:20:57Z,42.805,6.029,13.3028,4.60099,2470.53,2023-1-21T06:27:19Z
2023-01-21T04:24:00Z,42.805,6.029,13.3029,4.60102,2470.567,2023-1-21T06:30:22Z
2023-01-21T04:27:03Z,42.805,6.029,13.3025,4.60088,2470.53,2023-1-21T06:33:25Z
2023-01-21T04:30:06Z,42.805,6.029,13.3036,4.60123,2470.553,2023-1-21T06:36:28Z
2023-01-21T04:33:09Z,42.805,6.029,13.3036,4.60114,2470.567,2023-1-21T06:39:31Z
2023-01-21T04:36:12Z,42.805,6.029,13.3031,4.60102,2470.614,2023-1-21T06:42:34Z
2023-01-21T04:39:15Z,42.805,6.029,13.3014,4.60092,2470.567,2023-1-21T06:45:38Z
2023-01-21T04:42:19Z,42.805,6.029,13.3025,4.60094,2470.591,2023-1-21T06:48:41Z
2023-01-21T04:45:22Z,42.805,6.029,13.3023,4.60095,2470.591,2023-1-21T06:51:44Z
2023-01-21T04:48:25Z,42.805,6.029,13.3028,4.60087,2470.591,2023-1-21T06:54:47Z
2023-01-21T04:51:28Z,42.805,6.029,13.3031,4.60110,2470.614,2023-1-21T06:57:50Z
2023-01-21T04:54:31Z,42.805,6.029,13.3024,4.60082,2470.6,2023-1-21T07:00:53Z
2023-01-21T04:57:34Z,42.805,6.029,13.3026,4.60096,2470.6,2023-1-21T07:03:56Z
2023-01-21T05:00:37Z,42.805,6.029,13.3019,4.60099,2470.614,2023-1-21T07:06:59Z
2023-01-21T05:03:40Z,42.805,6.029,13.3028,4.60099,2470.624,2023-1-21T07:10:02Z
2023-01-21T05:06:43Z,42.805,6.029,13.3023,4.60099,2470.6,2023-1-21T07:13:05Z
2023-01-21T05:09:46Z,42.805,6.029,13.3024,4.60096,2470.6,2023-1-21T07:16:08Z
2023-01-21T05:12:49Z,42.805,6.029,13.3026,4.60111,2470.637,2023-1-21T07:19:12Z
2023-01-21T05:15:52Z,42.805,6.029,13.3026,4.60098,2470.624,2023-1-21T07:22:15Z
2023-01-21T05:18:56Z,42.805,6.029,13.3025,4.60104,2470.61,2023-1-21T07:25:18Z
2023-01-21T05:21:59Z,42.805,6.029,13.3032,4.60098,2470.661,2023-1-21T07:28:21Z
2023-01-21T05:25:02Z,42.805,6.029,13.3026,4.60100,2470.646,2023-1-21T07:31:24Z
2023-01-21T05:28:05Z,42.805,6.029,13.3016,4.60096,2470.646,2023-1-21T07:34:27Z
2023-01-21T05:31:08Z,42.805,6.029,13.3021,4.60091,2470.684,2023-1-21T07:37:30Z
2023-01-21T05:34:11Z,42.805,6.029,13.3022,4.60096,2470.624,2023-1-21T07:40:33Z
2023-01-21T05:37:14Z,42.805,6.029,13.3024,4.60104,2470.646,2023-1-21T07:43:36Z
2023-01-21T05:40:17Z,42.805,6.029,13.3026,4.60087,2470.646,2023-1-21T07:46:39Z
2023-01-21T05:43:20Z,42.805,6.029,13.3031,4.60117,2470.646,2023-1-21T07:49:42Z
2023-01-21T05:46:23Z,42.805,6.029,13.3026,4.60117,2470.646,2023-1-21T07:52:45Z
2023-01-21T05:49:26Z,42.805,6.029,13.3028,4.60092,2470.661,2023-1-21T07:55:49Z
2023-01-21T05:52:30Z,42.805,6.029,13.3023,4.60109,2470.684,2023-1-21T07:58:52Z
2023-01-21T05:55:33Z,42.805,6.029,13.3033,4.60114,2470.661,2023-1-21T08:01:55Z
2023-01-21T05:58:36Z,42.805,6.029,13.3028,4.60105,2470.661,2023-1-21T08:04:58Z
2023-01-21T06:01:39Z,42.805,6.029,13.3027,4.60121,2470.637,2023-1-21T08:08:01Z
2023-01-21T06:04:42Z,42.805,6.029,13.3035,4.60115,2470.646,2023-1-21T08:11:04Z
2023-01-21T06:07:45Z,42.805,6.029,13.3036,4.60134,2470.646,2023-1-21T08:14:07Z
2023-01-21T06:10:48Z,42.805,6.029,13.3031,4.60122,2470.684,2023-1-21T08:17:10Z
2023-01-21T06:13:51Z,42.805,6.029,13.3021,4.60110,2470.684,2023-1-21T08:20:13Z
2023-01-21T06:16:54Z,42.805,6.029,13.3024,4.60117,2470.646,2023-1-21T08:23:16Z
2023-01-21T06:19:57Z,42.805,6.029,13.3023,4.60092,2470.684,2023-1-21T08:26:19Z
2023-01-21T06:23:00Z,42.805,6.029,13.3023,4.60099,2470.646,2023-1-21T08:29:23Z
2023-01-21T06:26:04Z,42.805,6.029,13.3030,4.60104,2470.684,2023-1-21T08:32:26Z
2023-01-21T06:29:07Z,42.805,6.029,13.3033,4.60104,2470.693,2023-1-21T08:35:29Z
2023-01-21T06:32:10Z,42.805,6.029,13.3031,4.60110,2470.707,2023-1-21T08:38:32Z
2023-01-21T06:35:13Z,42.805,6.029,13.3036,4.60125,2470.646,2023-1-21T08:41:35Z
2023-01-21T06:38:16Z,42.805,6.029,13.3036,4.60118,2470.646,2023-1-21T08:44:38Z
2023-01-21T06:41:19Z,42.805,6.029,13.3031,4.60135,2470.646,2023-1-21T08:47:41Z
2023-01-21T06:44:22Z,42.805,6.029,13.3024,4.60107,2470.707,2023-1-21T08:50:44Z
2023-01-21T06:47:25Z,42.805,6.029,13.3027,4.60125,2470.684,2023-1-21T08:53:47Z
2023-01-21T06:50:28Z,42.805,6.029,13.3041,4.60102,2470.693,2023-1-21T08:56:50Z
2023-01-21T06:53:31Z,42.805,6.029,13.3034,4.60127,2470.684,2023-1-21T08:59:54Z
2023-01-21T06:56:34Z,42.805,6.029,13.3041,4.60117,2470.684,2023-1-21T09:02:57Z
2023-01-21T06:59:37Z,42.805,6.029,13.3037,4.60122,2470.693,2023-1-21T09:06:00Z
2023-01-21T07:02:41Z,42.805,6.029,13.3026,4.60121,2470.684,2023-1-21T09:09:03Z
2023-01-21T07:05:44Z,42.805,6.029,13.3066,4.60137,2470.707,2023-1-21T09:12:06Z
2023-01-21T07:08:47Z,42.805,6.029,13.3043,4.60119,2470.67,2023-1-21T09:15:09Z
2023-01-21T07:11:50Z,42.805,6.029,13.3045,4.60129,2470.707,2023-1-21T09:18:12Z
2023-01-21T07:14:53Z,42.805,6.029,13.3029,4.60124,2470.73,2023-1-21T09:21:15Z
2023-01-21T07:17:56Z,42.805,6.029,13.3038,4.60125,2470.646,2023-1-21T09:24:18Z
2023-01-21T07:20:59Z,42.805,6.029,13.3042,4.60127,2470.693,2023-1-21T09:27:21Z
2023-01-21T07:24:02Z,42.805,6.029,13.3036,4.60132,2470.707,2023-1-21T09:30:24Z
2023-01-21T07:27:05Z,42.805,6.029,13.3039,4.60128,2470.67,2023-1-21T09:33:27Z
2023-01-21T07:30:08Z,42.805,6.029,13.3033,4.60127,2470.73,2023-1-21T09:36:31Z
2023-01-21T07:33:11Z,42.805,6.029,13.3037,4.60137,2470.717,2023-1-21T09:39:34Z
2023-01-21T07:36:14Z,42.805,6.029,13.3040,4.60150,2470.67,2023-1-21T09:42:37Z
2023-01-21T07:39:18Z,42.805,6.029,13.3028,4.60121,2470.684,2023-1-21T09:45:40Z
2023-01-21T07:42:21Z,42.805,6.029,13.3031,4.60126,2470.693,2023-1-21T09:48:43Z
2023-01-21T07:45:24Z,42.805,6.029,13.3032,4.60126,2470.684,2023-1-21T09:51:46Z
2023-01-21T07:48:27Z,42.805,6.029,13.3034,4.60112,2470.693,2023-1-21T09:54:49Z
2023-01-21T07:51:30Z,42.805,6.029,13.3048,4.60141,2470.717,2023-1-21T09:57:52Z
2023-01-21T07:54:33Z,42.805,6.029,13.3046,4.60144,2470.67,2023-1-21T10:00:55Z
2023-01-21T07:57:36Z,42.805,6.029,13.3040,4.60138,2470.707,2023-1-21T10:03:58Z
2023-01-21T08:00:39Z,42.805,6.029,13.3041,4.60124,2470.693,2023-1-21T10:07:01Z
2023-01-21T08:03:42Z,42.805,6.029,13.3035,4.60144,2470.67,2023-1-21T10:10:04Z
2023-01-21T08:06:45Z,42.805,6.029,13.3034,4.60148,2470.707,2023-1-21T10:13:08Z
2023-01-21T08:09:48Z,42.805,6.029,13.3043,4.60133,2470.684,2023-1-21T10:16:11Z
2023-01-21T08:12:52Z,42.805,6.029,13.3046,4.60122,2470.67,2023-1-21T10:19:14Z
2023-01-21T08:15:55Z,42.805,6.029,13.3036,4.60112,2470.67,2023-1-21T10:22:17Z
2023-01-21T08:18:58Z,42.805,6.029,13.3029,4.60132,2470.693,2023-1-21T10:25:20Z
2023-01-21T08:22:01Z,42.805,6.029,13.3026,4.60137,2470.707,2023-1-21T10:28:23Z
2023-01-21T08:25:04Z,42.805,6.029,13.3033,4.60142,2470.693,2023-1-21T10:31:26Z
2023-01-21T08:28:07Z,42.805,6.029,13.3032,4.60127,2470.707,2023-1-21T10:34:29Z
2023-01-21T08:31:10Z,42.805,6.029,13.3034,4.60147,2470.707,2023-1-21T10:37:32Z
2023-01-21T08:34:13Z,42.805,6.029,13.3038,4.60167,2470.693,2023-1-21T10:40:35Z
2023-01-21T08:37:16Z,42.805,6.029,13.3046,4.60140,2470.707,2023-1-21T10:43:38Z
2023-01-21T08:40:19Z,42.805,6.029,13.3037,4.60125,2470.707,2023-1-21T10:46:42Z
2023-01-21T08:43:22Z,42.805,6.029,13.3046,4.60138,2470.684,2023-1-21T10:49:45Z
2023-01-21T08:46:26Z,42.805,6.029,13.3043,4.60140,2470.661,2023-1-21T10:52:48Z
2023-01-21T08:49:29Z,42.805,6.029,13.3029,4.60138,2470.693,2023-1-21T10:55:51Z
2023-01-21T08:52:32Z,42.805,6.029,13.3034,4.60120,2470.646,2023-1-21T10:58:54Z
2023-01-21T08:55:35Z,42.805,6.029,13.3031,4.60126,2470.684,2023-1-21T11:01:57Z
2023-01-21T08:58:38Z,42.805,6.029,13.3031,4.60127,2470.67,2023-1-21T11:05:00Z
2023-01-21T09:01:41Z,42.805,6.029,13.3034,4.60134,2470.67,2023-1-21T11:08:03Z
2023-01-21T09:04:44Z,42.805,6.029,13.3040,4.60152,2470.661,2023-1-21T11:11:06Z
2023-01-21T09:07:47Z,42.805,6.029,13.3051,4.60139,2470.684,2023-1-21T11:14:09Z
2023-01-21T09:10:50Z,42.805,6.029,13.3048,4.60146,2470.684,2023-1-21T11:17:13Z
2023-01-21T09:13:53Z,42.805,6.029,13.3039,4.60150,2470.67,2023-1-21T11:20:16Z
2023-01-21T09:16:56Z,42.805,6.029,13.3038,4.60140,2470.646,2023-1-21T11:23:19Z
2023-01-21T09:20:00Z,42.805,6.029,13.3035,4.60129,2470.67,2023-1-21T11:26:22Z
2023-01-21T09:23:03Z,42.805,6.029,13.3028,4.60132,2470.693,2023-1-21T11:29:25Z
2023-01-21T09:26:06Z,42.805,6.029,13.3032,4.60119,2470.67,2023-1-21T11:32:28Z
2023-01-21T09:29:09Z,42.805,6.029,13.3032,4.60127,2470.646,2023-1-21T11:35:31Z
2023-01-21T09:32:12Z,42.805,6.029,13.3032,4.60125,2470.67,2023-1-21T11:38:34Z
2023-01-21T09:35:15Z,42.805,6.029,13.3034,4.60117,2470.684,2023-1-21T11:41:37Z
2023-01-21T09:38:18Z,42.805,6.029,13.3031,4.60142,2470.646,2023-1-21T11:44:40Z
2023-01-21T09:41:21Z,42.805,6.029,13.3031,4.60122,2470.661,2023-1-21T11:47:43Z
2023-01-21T09:44:24Z,42.805,6.029,13.3045,4.60127,2470.67,2023-1-21T11:50:47Z
2023-01-21T09:47:27Z,42.805,6.029,13.3026,4.60137,2470.646,2023-1-21T11:53:50Z
2023-01-21T09:50:30Z,42.805,6.029,13.3041,4.60124,2470.67,2023-1-21T11:56:53Z
2023-01-21T09:53:34Z,42.805,6.029,13.3035,4.60125,2470.67,2023-1-21T11:59:56Z
2023-01-21T09:56:37Z,42.805,6.029,13.3028,4.60151,2470.646,2023-1-21T12:02:59Z
2023-01-21T09:59:40Z,42.805,6.029,13.3039,4.60142,2470.646,2023-1-21T12:06:02Z
2023-01-21T10:02:43Z,42.805,6.029,13.3043,4.60152,2470.67,2023-1-21T12:09:05Z
2023-01-21T10:05:46Z,42.805,6.029,13.3034,4.60131,2470.637,2023-1-21T12:12:08Z
2023-01-21T10:08:49Z,42.805,6.029,13.3051,4.60138,2470.67,2023-1-21T12:15:11Z
2023-01-21T10:11:52Z,42.805,6.029,13.3037,4.60129,2470.67,2023-1-21T12:18:14Z
2023-01-21T10:14:55Z,42.805,6.029,13.3031,4.60131,2470.661,2023-1-21T12:21:17Z
2023-01-21T10:17:58Z,42.805,6.029,13.3033,4.60119,2470.646,2023-1-21T12:24:21Z
2023-01-21T10:21:01Z,42.805,6.029,13.3028,4.60151,2470.624,2023-1-21T12:27:24Z
2023-01-21T10:24:04Z,42.805,6.029,13.3051,4.60137,2470.624,2023-1-21T12:30:27Z
2023-01-21T10:27:08Z,42.805,6.029,13.3039,4.60127,2470.684,2023-1-21T12:33:30Z
2023-01-21T10:30:11Z,42.805,6.029,13.3061,4.60147,2470.614,2023-1-21T12:36:33Z
2023-01-21T10:33:14Z,42.805,6.029,13.3039,4.60155,2470.646,2023-1-21T12:39:36Z
2023-01-21T10:36:17Z,42.805,6.029,13.3048,4.60140,2470.661,2023-1-21T12:42:39Z
2023-01-21T10:39:20Z,42.805,6.029,13.3040,4.60140,2470.637,2023-1-21T12:45:42Z
2023-01-21T10:42:23Z,42.805,6.029,13.3041,4.60146,2470.646,2023-1-21T12:48:45Z
2023-01-21T10:45:26Z,42.805,6.029,13.3041,4.60144,2470.6,2023-1-21T12:51:48Z
2023-01-21T10:48:29Z,42.805,6.029,13.3048,4.60147,2470.624,2023-1-21T12:54:52Z
2023-01-21T10:51:32Z,42.805,6.029,13.3057,4.60132,2470.646,2023-1-21T12:57:55Z
2023-01-21T10:54:35Z,42.805,6.029,13.3043,4.60119,2470.637,2023-1-21T13:00:58Z
2023-01-21T10:57:39Z,42.805,6.029,13.3052,4.60117,2470.624,2023-1-21T13:04:01Z
2023-01-21T11:00:42Z,42.805,6.029,13.3041,4.60135,2470.646,2023-1-21T13:07:04Z
2023-01-21T11:03:45Z,42.805,6.029,13.3036,4.60146,2470.624,2023-1-21T13:10:07Z
2023-01-21T11:06:48Z,42.805,6.029,13.3038,4.60137,2470.624,2023-1-21T13:13:10Z
2023-01-21T11:09:51Z,42.805,6.029,13.3043,4.60126,2470.624,2023-1-21T13:16:13Z
2023-01-21T11:12:54Z,42.805,6.029,13.3046,4.60145,2470.624,2023-1-21T13:19:16Z
2023-01-21T11:15:57Z,42.805,6.029,13.3040,4.60122,2470.624,2023-1-21T13:22:19Z
2023-01-21T11:19:00Z,42.805,6.029,13.3041,4.60119,2470.6,2023-1-21T13:25:22Z
2023-01-21T11:22:03Z,42.805,6.029,13.3040,4.60122,2470.6,2023-1-21T13:28:26Z
2023-01-21T11:25:06Z,42.805,6.029,13.3044,4.60134,2470.6,2023-1-21T13:31:29Z
2023-01-21T11:28:09Z,42.805,6.029,13.3056,4.60128,2470.637,2023-1-21T13:34:32Z
2023-01-21T11:31:12Z,42.805,6.029,13.3051,4.60144,2470.591,2023-1-21T13:37:35Z
2023-01-21T11:34:16Z,42.805,6.029,13.3050,4.60122,2470.577,2023-1-21T13:40:38Z
2023-01-21T11:37:19Z,42.805,6.029,13.3050,4.60092,2470.6,2023-1-21T13:43:41Z
2023-01-21T11:40:22Z,42.805,6.029,13.3042,4.60127,2470.614,2023-1-21T13:46:44Z
2023-01-21T11:43:25Z,42.805,6.029,13.3041,4.60122,2470.614,2023-1-21T13:49:47Z
2023-01-21T11:46:28Z,42.805,6.029,13.3048,4.60142,2470.6,2023-1-21T13:52:50Z
2023-01-21T11:49:31Z,42.805,6.029,13.3049,4.60161,2470.591,2023-1-21T13:55:53Z
2023-01-21T11:52:34Z,42.805,6.029,13.3044,4.60143,2470.614,2023-1-21T13:58:56Z
2023-01-21T11:55:37Z,42.805,6.029,13.3048,4.60092,2470.567,2023-1-21T14:02:00Z
2023-01-21T11:58:40Z,42.805,6.029,13.3046,4.60115,2470.6,2023-1-21T14:05:03Z
2023-01-21T12:01:43Z,42.805,6.029,13.3053,4.60140,2470.614,2023-1-21T14:08:06Z
2023-01-21T12:04:46Z,42.805,6.029,13.3058,4.60119,2470.553,2023-1-21T14:11:09Z
2023-01-21T12:07:50Z,42.805,6.029,13.3028,4.60137,2470.591,2023-1-21T14:14:12Z
2023-01-21T12:10:53Z,42.805,6.029,13.3048,4.60105,2470.567,2023-1-21T14:17:15Z
2023-01-21T12:13:56Z,42.805,6.029,13.3051,4.60135,2470.577,2023-1-21T14:20:18Z
2023-01-21T12:16:59Z,42.805,6.029,13.3050,4.60127,2470.567,2023-1-21T14:23:21Z
2023-01-21T12:20:02Z,42.805,6.029,13.3067,4.60154,2470.577,2023-1-21T14:26:24Z
2023-01-21T12:23:05Z,42.805,6.029,13.3048,4.60122,2470.553,2023-1-21T14:29:27Z
2023-01-21T12:26:08Z,42.805,6.029,13.3052,4.60102,2470.553,2023-1-21T14:32:30Z
2023-01-21T12:29:11Z,42.805,6.029,13.3055,4.60099,2470.544,2023-1-21T14:35:34Z
2023-01-21T12:32:14Z,42.805,6.029,13.3048,4.60089,2470.577,2023-1-21T14:38:37Z
2023-01-21T12:35:17Z,42.805,6.029,13.3048,4.60094,2470.53,2023-1-21T14:41:40Z
2023-01-21T12:38:20Z,42.805,6.029,13.3047,4.60121,2470.553,2023-1-21T14:44:43Z
2023-01-21T12:41:24Z,42.805,6.029,13.3046,4.60099,2470.591,2023-1-21T14:47:46Z
2023-01-21T12:44:27Z,42.805,6.029,13.3049,4.60122,2470.567,2023-1-21T14:50:49Z
2023-01-21T12:47:30Z,42.805,6.029,13.3043,4.60131,2470.577,2023-1-21T14:53:52Z
2023-01-21T12:50:33Z,42.805,6.029,13.3045,4.60140,2470.553,2023-1-21T14:56:55Z
2023-01-21T12:53:36Z,42.805,6.029,13.3054,4.60119,2470.567,2023-1-21T14:59:58Z
2023-01-21T12:56:39Z,42.805,6.029,13.3028,4.60117,2470.553,2023-1-21T15:03:01Z
2023-01-21T12:59:42Z,42.805,6.029,13.3049,4.60109,2470.52,2023-1-21T15:06:05Z
2023-01-21T13:02:45Z,42.805,6.029,13.3048,4.60119,2470.544,2023-1-21T15:09:08Z
2023-01-21T13:05:48Z,42.805,6.029,13.3048,4.60099,2470.567,2023-1-21T15:12:11Z
2023-01-21T13:08:51Z,42.805,6.029,13.3043,4.60101,2470.553,2023-1-21T15:15:14Z
2023-01-21T13:11:54Z,42.805,6.029,13.3046,4.60098,2470.553,2023-1-21T15:18:17Z
2023-01-21T13:14:58Z,42.805,6.029,13.3047,4.60108,2470.591,2023-1-21T15:21:20Z
2023-01-21T13:18:01Z,42.805,6.029,13.3048,4.60088,2470.544,2023-1-21T15:24:23Z
2023-01-21T13:21:04Z,42.805,6.029,13.3058,4.60094,2470.553,2023-1-21T15:27:26Z
2023-01-21T13:24:07Z,42.805,6.029,13.3043,4.60114,2470.544,2023-1-21T15:30:29Z
2023-01-21T13:27:10Z,42.805,6.029,13.3039,4.60104,2470.553,2023-1-21T15:33:32Z
2023-01-21T13:30:13Z,42.805,6.029,13.3051,4.60105,2470.553,2023-1-21T15:36:35Z
2023-01-21T13:33:16Z,42.805,6.029,13.3048,4.60098,2470.567,2023-1-21T15:39:39Z
2023-01-21T13:36:19Z,42.805,6.029,13.3056,4.60131,2470.544,2023-1-21T15:42:42Z
2023-01-21T13:39:22Z,42.805,6.029,13.3039,4.60102,2470.567,2023-1-21T15:45:45Z
2023-01-21T13:42:25Z,42.805,6.029,13.3043,4.60087,2470.553,2023-1-21T15:48:48Z
2023-01-21T13:45:29Z,42.805,6.029,13.3026,4.60084,2470.577,2023-1-21T15:51:51Z
2023-01-21T13:48:32Z,42.805,6.029,13.3038,4.60097,2470.567,2023-1-21T15:54:54Z
2023-01-21T13:51:35Z,42.805,6.029,13.3045,4.60102,2470.567,2023-1-21T15:57:57Z
2023-01-21T13:54:38Z,42.805,6.029,13.3046,4.60109,2470.563,2023-1-21T16:01:00Z
2023-01-21T13:57:41Z,42.805,6.029,13.3030,4.60081,2470.53,2023-1-21T16:04:03Z
2023-01-21T14:00:44Z,42.805,6.029,13.3028,4.60073,2470.553,2023-1-21T16:07:06Z
2023-01-21T14:03:47Z,42.805,6.029,13.3029,4.60074,2470.591,2023-1-21T16:10:09Z
2023-01-21T14:06:50Z,42.805,6.029,13.3023,4.60078,2470.591,2023-1-21T16:13:13Z
2023-01-21T14:09:53Z,42.805,6.029,13.3039,4.60084,2470.591,2023-1-21T16:16:16Z
2023-01-21T14:12:56Z,42.805,6.029,13.3027,4.60079,2470.544,2023-1-21T16:19:19Z
2023-01-21T14:15:59Z,42.805,6.029,13.3046,4.60090,2470.591,2023-1-21T16:22:22Z
2023-01-21T14:19:03Z,42.805,6.029,13.3047,4.60144,2470.591,2023-1-21T16:25:25Z
2023-01-21T14:22:06Z,42.805,6.029,13.3044,4.60100,2470.577,2023-1-21T16:28:28Z
2023-01-21T14:25:09Z,42.805,6.029,13.3038,4.60082,2470.567,2023-1-21T16:31:31Z
2023-01-21T14:28:12Z,42.805,6.029,13.3037,4.60137,2470.591,2023-1-21T16:34:34Z
2023-01-21T14:31:15Z,42.805,6.029,13.3032,4.60116,2470.651,2023-1-21T16:37:37Z
2023-01-21T14:34:18Z,42.805,6.029,13.3048,4.60118,2470.591,2023-1-21T16:40:40Z
2023-01-21T14:37:21Z,42.805,6.029,13.3043,4.60128,2470.567,2023-1-21T16:43:44Z
2023-01-21T14:40:24Z,42.805,6.029,13.3042,4.60135,2470.567,2023-1-21T16:46:47Z
2023-01-21T14:43:27Z,42.805,6.029,13.3043,4.60151,2470.6,2023-1-21T16:49:50Z
2023-01-21T14:46:30Z,42.805,6.029,13.3041,4.60139,2470.591,2023-1-21T16:52:53Z
2023-01-21T14:49:33Z,42.805,6.029,13.3049,4.60140,2470.591,2023-1-21T16:55:56Z
2023-01-21T14:52:37Z,42.805,6.029,13.3036,4.60110,2470.6,2023-1-21T16:58:59Z
2023-01-21T14:55:40Z,42.805,6.029,13.3036,4.60113,2470.591,2023-1-21T17:02:02Z
2023-01-21T14:58:43Z,42.805,6.029,13.3045,4.60112,2470.591,2023-1-21T17:05:05Z
2023-01-21T15:01:46Z,42.805,6.029,13.3048,4.60097,2470.577,2023-1-21T17:08:08Z
2023-01-21T15:04:49Z,42.805,6.029,13.3049,4.60127,2470.567,2023-1-21T17:11:11Z
2023-01-21T15:07:52Z,42.805,6.029,13.3030,4.60102,2470.591,2023-1-21T17:14:14Z
2023-01-21T15:10:55Z,42.805,6.029,13.3033,4.60097,2470.591,2023-1-21T17:17:18Z